Location: D�pe
(52.6057°N, 8.1808°E)
Time: 01:56:36
(UTC+00:00)

In-Cosmos 22 Rocket - Pass Details

Date: 29 October 2020
Orbit: 790 x 888 km, 81.2° (Epoch: 23 November)

Event Time Altitude Azimuth Distance (km) Brightness Sun altitude
Rises 17:30:54 0° 345° (NNW) 3,310 7.4 -13.9°
Reaches altitude 10° 17:33:17 10° 344° (NNW) 2,383 6.7 -14.3°
Maximum altitude 17:38:38 74° 260° (W) 844 4.3 -15.1°
Drops below altitude 10° 17:44:04 10° 176° (S) 2,415 6.6 -15.9°
Sets 17:46:29 0° 175° (S) 3,359 7.3 -16.3°
